Regional Weather Roundup
Issued by NWS State College, PA

Home | Current Version | Previous Version | Graphics & Text | Print | Product List | Glossary Off
Versions: 1 2 3 4 5 6 7 8 9 10 11 12 13 14 15 16 17 18 19 20 21 22 23 24 25 26 27 28 29 30 31 32 33 34 35 36 37 38 39 40 41 42 43 44 45 46 47 48 49 50

000
ASUS41 KCTP 022310
RWRCTP

REGIONAL WEATHER ROUNDUP
NATIONAL WEATHER SERVICE STATE COLLEGE PA
700 PM EDT MON MAY 02 2016

Note: "fair" indicates few or no clouds below 12,000 feet with no
significant weather and/or obstructions to visibility.

* = STATION THAT DOES NOT REPORT PRECIPITATION /E.G. RAIN...SNOW...ETC/
    THUNDER OR FOG.

PAZ002>004-007>009-013>016-020>023-029>032-030000-
WESTERN PENNSYLVANIA

CITY           SKY/WX    TMP DP  RH WIND       PRES   REMARKS
ERIE           CLOUDY    47  41  80 E6        29.98S
MEADVILLE      CLOUDY    45  43  93 N3        29.96R
FRANKLIN*      CLOUDY    50  43  76 NW3       29.97R
NEW CASTLE     CLOUDY    51  46  83 NW7       29.96R
BEAVER COUNTY  CLOUDY    54  46  76 N5        29.94R
BUTLER*        CLOUDY    55  46  71 NW6       29.95S
PITTSBURGH INT CLOUDY    58  47  66 N7        29.93R
PITTSBURGH     CLOUDY    60  49  66 VRB5      29.92R
INDIANA*       CLOUDY    63  52  67 N5        29.94F
LATROBE        PTSUNNY   63  54  72 NW8       29.92S
WASHINGTON CO* CLOUDY    59  50  72 NW5       29.95R
$$

PAZ004>006-010>012-017>019-024>028-033>037-041-042-045-046-049>053-030000-
CENTRAL PENNSYLVANIA

CITY           SKY/WX    TMP DP  RH WIND       PRES   REMARKS
BRADFORD       CLOUDY    51  45  79 N5        29.92F
DUBOIS         PTSUNNY   57  48  72 N6        29.90F
CLEARFIELD     CLOUDY    62  48  60 N3        29.90F
JOHNSTOWN      MOSUNNY   61  47  59 N8        29.90F
ALTOONA        CLOUDY    66  51  58 N12       29.88S
STATE COLLEGE  MOSUNNY   66  48  52 NW6       29.88S
WILLIAMSPORT   CLOUDY    63  51  65 E7        29.90R
SELINSGROVE    MOSUNNY   66  55  67 NE7       29.88R
FT INDIANTOWN  CLOUDY    62  62 100 NE7       29.88S
CAPITAL CITY   CLOUDY    65  57  75 NE7       29.86S HAZE
HARRISBURG     CLOUDY    64  57  78 NE6       29.85S HAZE
YORK           MOSUNNY   70  62  76 NE9       29.84R
$$

PAZ038>040-043-044-047-048-054-055-060>062-067>071-030000-
EASTERN PENNSYLVANIA

CITY           SKY/WX    TMP DP  RH WIND       PRES   REMARKS
SCRANTON       CLOUDY    58  48  69 N10       29.92R
MOUNT POCONO   CLOUDY    56  47  71 NW6G17    29.91R
ALLENTOWN      MOCLDY    62  53  72 S3        29.90R
QUAKERTOWN*    CLOUDY    59  55  88 CALM      29.91S
READING        PTSUNNY   64  55  72 CALM      29.87F
LANCASTER      CLOUDY    65  60  84 E9        29.86F
COATESVILLE    CLEAR     63  63 100 E6G14     29.90S
POTTSTOWN      CLOUDY    60  55  83 NE5       29.91S HAZE
BLUE BELL      CLOUDY    59  54  82 CALM      29.90R
DOYLESTOWN     PTCLDY    59  54  83 S3        29.90S
WILLOW GROVE   NOT AVBL
NORTH PHILA    CLOUDY    63  55  75 CALM      29.92S
PHILADELPHIA   PTCLDY    65  55  70 CALM      29.89F
$$




USA.gov is the U.S. government's official web portal to all federal, state and local government web resources and services.